Tracking 18987 objects as of 26-Feb-2018
HD Live streaming from Space Station
objects crossing your sky now

COSMOS 700

Track COSMOS 700 now!
10-day predictions
COSMOS 700 is classified as:


NORAD ID: 7593
Int'l Code: 1974-105A
Perigee: 964.0 km
Apogee: 1,001.5 km
Inclination: 83.0 °
Period: 104.6 minutes
Semi major axis: 7353 km
RCS: 1.9963 m2 (large)
Launch date: December 26, 1974
Source: Commonwealth of Independent States (former USSR) (CIS)
Launch site: PLESETSK MISSILE AND SPACE COMPLEX (PKMTR)
aabbcc
Your satellite tracking list
Your tracking list is empty




NASA's NSSDC Master Catalog

Two Line Element Set (TLE):
1 07593U 74105A   18056.81530779  .00000016  00000-0  78935-6 0  9996
2 07593  82.9532 139.1671 0025491 148.7249 351.3225 13.76712370168293
Source of the keplerian elements: AFSPC